Location: Dos Palmas
(32.4468°N, 116.8732°W)
Time: 02:28:34
(UTC+00:00)

COSMOS 2428 - Pass Details

Date: 20 June 2021
Orbit: 845 x 858 km, 70.9° (Epoch: 27 July)

Event Time Altitude Azimuth Distance (km) Brightness Sun altitude
Exits shadow 05:52:00 26° 234° (SW) 1,629 4.1 -27.5°
Maximum altitude 05:54:56 47° 294° (WNW) 1,117 3.5 -27.8°
Drops below altitude 10° 06:00:27 10° 8° (N) 2,495 5.8 -28.4°
Sets 06:03:01 0° 14° (NNE) 3,435 6.5 -28.6°
